Flag for United Kingdom Weather past 2 weeks in Darlington, England, United Kingdom

Now
57 °F

Scattered clouds.


Feels Like: 56 °F
Forecast: 48 / 63 °F
Wind: 7 mph from North

Location: Tees-Side

Current Time: Aug 31, 2015 at 9:05:02 PM

Latest Report: Aug 31, 2015 at 8:20 PM


Visibility: N/A

Pressure: 30.04 "Hg

Humidity: 82%

Dew point: 52 °F

Location of DarlingtonLocation

Historic Weather in Darlington — Graph

°F

Darlington temperature yesterday

Maximum temperature yesterday: 68 °F (at 1:50 PM)
Minimum temperature yesterday: 50 °F (at 6:50 AM)
Average temperature yesterday: 63 °F

Past Weeks' High & Low Weather Summary

 TemperatureHumidityPressure
High77 °F (Aug 23, 1:20 PM)100% (Aug 24, 6:20 AM)30.09 "Hg (Aug 24, 6:20 AM)
Low50 °F (Aug 17, 6:20 AM)43% (Aug 25, 11:50 AM)29.42 "Hg (Aug 26, 6:50 AM)
Average63 °F70%29.83 "Hg
* Reported Aug 16 7:20 PM — Aug 31 7:50 PM, Darlington, Weather by CustomWeather, © 2015

Note: Actual official high and low records may vary slightly from our data, if they occured in-between our weather recording intervals... More about our weather records

Advertising

Darlington weather history for previous 24 hours

 ConditionsComfort  
Time TempWeatherWind HumidityBarometerVisibility
7:50 PM
Mon, Aug 31
57 °FScattered showers. Scattered clouds.7 mph82%30.04 "HgN/A
7:20 PM57 °FSleet. Scattered clouds.10 mph82%30.04 "HgN/A
6:50 PM57 °FScattered showers. Broken clouds.8 mph82%30.01 "Hg4 mi
6:20 PM57 °FBroken clouds.10 mph88%30.01 "HgN/A
5:50 PM57 °FPartly sunny.9 mph88%30.01 "Hg5 mi
5:20 PM57 °FScattered clouds.12 mph88%30.01 "Hg2 mi
4:50 PM59 °FDrizzle. Partly sunny.14 mph82%30.01 "Hg2 mi
4:20 PM59 °FScattered showers. Broken clouds.9 mph82%30.01 "Hg4 mi
3:50 PM59 °FScattered showers. Broken clouds.8 mph82%30.01 "HgN/A
3:20 PM59 °FPartly sunny.10 mph82%30.01 "HgN/A
2:50 PM59 °FPartly sunny.12 mph77%30.04 "HgN/A
2:20 PM59 °FBroken clouds.13 mph77%30.01 "HgN/A
1:50 PM59 °FPartly sunny.9 mph82%30.01 "HgN/A
1:20 PM57 °FScattered clouds.9 mph88%30.01 "HgN/A
12:50 PM57 °FPartly sunny.10 mph88%30.01 "HgN/A
12:20 PM57 °FPartly sunny.10 mph88%30.01 "HgN/A
11:50 AM57 °FPartly sunny.12 mph88%30.01 "HgN/A
11:20 AM55 °FLight rain. Partly sunny.9 mph94%30.01 "HgN/A
10:50 AM55 °FLight rain. Partly sunny.9 mph88%30.01 "HgN/A
10:20 AM55 °FLight rain. Partly sunny.9 mph88%30.04 "Hg6 mi
9:50 AM55 °FPartly sunny.8 mph88%30.01 "HgN/A
9:20 AM55 °FLight rain. Partly sunny.8 mph88%30.01 "HgN/A
8:50 AM55 °FLight rain. Scattered clouds.7 mph88%30.04 "Hg6 mi
8:20 AM55 °FLight rain. Scattered clouds.7 mph88%30.04 "Hg5 mi
7:50 AM54 °FLight rain. Broken clouds.7 mph94%30.04 "Hg5 mi
6:50 AM54 °FLight rain. Passing clouds.6 mph94%30.04 "Hg4 mi
6:20 AM55 °FLight rain. Passing clouds.6 mph88%30.04 "Hg4 mi
5:50 AM55 °FLight rain. Partly cloudy.2 mph88%30.04 "Hg4 mi
9:50 PM
Sun, Aug 30
61 °FPassing clouds.7 mph72%30.07 "HgN/A
9:20 PM63 °FPassing clouds.8 mph68%30.09 "HgN/A
Weather by CustomWeather, © 2015

See weather overviewHow to use our weather pages